Date String (YYYY-MM-DD hh:mm:ss) UTC,Instrument flags,absolute air pressure of the measurement (hPa),sample flow rate (lpm),inlet stack bypass flow (lpm),air temperature of the measurement (°C),ambient temperature measured by the external sensor (°C),aerosol sample conditioner tube jacket temperature (°C),OPC LED temperature (°C),internal box temperature (°C),relative humidity of the measurement (%),span deviation,mass concentration of particles derived from Lorenz-Mie calculation of OPC scattering (μg/m³),mass concentration of particles derived from Lorenz-Mie calculation of OPC scattering (μg/m³),mass concentration of particles derived from Lorenz-Mie calculation of OPC scattering (μg/m³)
DateTimeUTC,F1_M11,P_M11,Q1_M11,Q2_M11,T1_M11,T2_M11,T3_M11,T4_M11,T5_M11,U1_M11,ZSPAN_M11,X0_M11,X2_M11,X1_M11
2023-06-24 10:00:00,SystemResetWarning,0829.5,5.00,000.00,030.5,028.8,000.0,039.0,031.9,8.2,0000.0,0013.45,0005.23,0004.21
2023-06-24 10:01:00,SystemResetWarning,0829.5,5.00,000.00,030.5,028.9,000.0,039.1,031.9,8.3,0000.0,0014.31,0005.25,0004.21
2023-06-24 10:02:00,SystemResetWarning,0829.4,4.98,000.00,030.5,027.8,000.0,039.0,032.0,8.2,0000.0,0015.00,0005.31,0004.22
2023-06-24 10:03:00,SystemResetWarning,0829.4,5.00,000.00,030.5,025.3,000.0,038.9,031.9,8.2,0000.0,0015.67,0005.33,0004.22
2023-06-24 10:04:00,SystemResetWarning,0829.4,5.02,000.00,030.4,024.8,000.0,038.9,031.7,8.3,0000.0,0015.50,0005.36,0004.22
2023-06-24 10:05:00,SystemResetWarning,0829.3,5.00,000.00,030.2,025.1,000.0,038.8,031.3,8.3,0000.0,0014.67,0005.34,0004.21
2023-06-24 10:06:00,SystemResetWarning,0829.3,5.00,000.00,030.2,025.5,000.0,038.8,031.3,8.4,0000.0,0014.55,0005.36,0004.20
2023-06-24 10:07:00,SystemResetWarning,0829.3,5.00,000.00,030.1,026.0,000.0,038.8,031.3,8.5,0000.0,0013.99,0005.35,0004.19
2023-06-24 10:08:00,SystemResetWarning,0829.3,4.99,000.00,030.1,026.4,000.0,038.8,031.3,8.5,0000.0,0013.60,0005.40,0004.21
2023-06-24 10:09:00,SystemResetWarning,0829.3,5.00,000.00,030.0,026.8,000.0,038.8,031.3,8.6,0000.0,0013.58,0005.44,0004.22
2023-06-24 10:10:00,SystemResetWarning,0829.4,5.01,000.00,030.0,027.1,000.0,038.7,031.3,8.7,0003.4,0013.53,0005.44,0004.21
2023-06-24 10:11:00,SystemResetWarning,0829.4,5.00,000.00,030.0,027.4,000.0,038.7,031.3,8.8,0003.5,0013.64,0005.45,0004.20
2023-06-24 10:12:00,SystemResetWarning,0829.5,5.00,000.00,030.0,027.6,000.0,038.7,031.4,8.8,0004.0,0012.89,0005.46,0004.21
2023-06-24 10:13:00,SystemResetWarning,0829.5,5.00,000.00,030.0,027.7,000.0,038.7,031.4,8.9,0003.5,0012.49,0005.47,0004.21
2023-06-24 10:14:00,SystemResetWarning,0829.4,5.00,000.00,030.0,027.9,000.0,038.7,031.4,8.8,0000.1,0011.96,0005.47,0004.20
2023-06-24 10:15:00,SystemResetWarning,0829.4,5.00,000.00,030.0,028.0,000.0,038.7,031.4,8.9,0001.8,0012.63,0005.42,0004.21
2023-06-24 10:16:00,SystemResetWarning,0829.4,5.00,000.00,030.0,028.0,000.0,038.7,031.4,8.8,0004.0,0012.99,0005.41,0004.22
2023-06-24 10:17:00,SystemResetWarning,0829.4,5.00,000.00,030.0,028.1,000.0,038.7,031.4,8.5,0001.5,0012.65,0005.41,0004.23
2023-06-24 10:18:00,SystemResetWarning,0829.3,5.00,000.00,030.0,028.2,000.0,038.7,031.4,8.7,0000.4,0013.17,0005.45,0004.22
2023-06-24 10:19:00,SystemResetWarning,0829.4,4.99,000.00,030.0,028.2,000.0,038.7,031.5,8.8,0003.3,0012.80,0005.40,0004.19
2023-06-24 10:20:00,SystemResetWarning,0829.4,5.00,000.00,030.1,028.3,000.0,038.6,031.5,8.6,0003.0,0012.28,0005.33,0004.18
2023-06-24 10:21:00,SystemResetWarning,0829.4,5.00,000.00,030.1,028.3,000.0,038.7,031.5,8.9,0003.4,0012.57,0005.30,0004.18
2023-06-24 10:22:00,SystemResetWarning,0829.3,5.00,000.00,030.1,028.3,000.0,038.7,031.5,9.0,0003.1,0012.59,0005.33,0004.17
2023-06-24 10:23:00,SystemResetWarning,0829.3,5.00,000.00,030.1,028.3,000.0,038.7,031.5,9.4,0001.2,0013.40,0005.34,0004.18
2023-06-24 10:24:00,SystemResetWarning,0829.3,5.00,000.00,030.1,028.4,000.0,038.7,031.5,8.9,0003.2,0013.94,0005.32,0004.17
2023-06-24 10:25:00,SystemResetWarning,0829.4,5.01,000.00,030.1,028.4,000.0,038.7,031.6,8.6,0003.4,0013.85,0005.30,0004.16
2023-06-24 10:26:00,SystemResetWarning,0829.4,4.99,000.00,030.1,028.4,000.0,038.7,031.5,8.5,0002.7,0013.33,0005.28,0004.14
2023-06-24 10:27:00,SystemResetWarning,0829.4,4.99,000.00,030.1,028.4,000.0,038.7,031.5,8.8,0001.2,0013.12,0005.30,0004.14
2023-06-24 10:28:00,SystemResetWarning,0829.3,5.01,000.00,030.1,028.4,000.0,038.7,031.6,8.7,0001.0,0013.44,0005.30,0004.13
2023-06-24 10:29:00,SystemResetWarning,0829.3,5.01,000.00,030.1,028.4,000.0,038.7,031.6,8.5,0002.4,0014.12,0005.27,0004.13
2023-06-24 10:30:00,SystemResetWarning,0829.3,5.00,000.00,030.1,028.4,000.0,038.7,031.6,8.8,0000.9,0013.99,0005.31,0004.15
2023-06-24 10:31:00,SystemResetWarning,0829.3,5.00,000.00,030.1,028.4,000.0,038.7,031.6,8.9,0001.0,0014.44,0005.35,0004.14
2023-06-24 10:32:00,SystemResetWarning,0829.3,4.99,000.00,030.1,028.4,000.0,038.7,031.6,9.0,0000.3,0014.20,0005.33,0004.15
2023-06-24 10:33:00,SystemResetWarning,0829.3,5.00,000.00,030.1,028.4,000.0,038.7,031.5,9.1,0000.0,0014.47,0005.32,0004.16
2023-06-24 10:34:00,SystemResetWarning,0829.3,5.00,000.00,030.1,028.4,000.0,038.7,031.6,8.9,0000.0,0013.91,0005.31,0004.14
2023-06-24 10:35:00,SystemResetWarning,0829.4,5.00,000.00,030.1,028.4,000.0,038.7,031.6,8.7,0000.0,0013.28,0005.28,0004.13
2023-06-24 10:36:00,SystemResetWarning,0829.4,5.00,000.00,030.1,028.4,000.0,038.7,031.6,8.6,0000.0,0013.49,0005.31,0004.14
2023-06-24 10:37:00,SystemResetWarning,0829.4,5.01,000.00,030.2,028.4,000.0,038.7,031.6,8.6,0000.0,0013.67,0005.37,0004.15
2023-06-24 10:38:00,SystemResetWarning,0829.5,5.01,000.00,030.2,028.4,000.0,038.7,031.6,8.7,0000.0,0013.38,0005.37,0004.15
2023-06-24 10:39:00,SystemResetWarning,0829.5,4.99,000.00,030.2,028.4,000.0,038.7,031.6,8.7,0000.0,0013.07,0005.38,0004.17
2023-06-24 10:40:00,SystemResetWarning,0829.5,5.00,000.00,030.2,028.4,000.0,038.7,031.6,8.7,0000.0,0012.17,0005.39,0004.17
2023-06-24 10:41:00,SystemResetWarning,0829.4,5.00,000.00,030.2,028.5,000.0,038.7,031.6,8.7,0000.0,0012.84,0005.36,0004.15
2023-06-24 10:42:00,SystemResetWarning,0829.4,4.99,000.00,030.2,028.5,000.0,038.7,031.6,8.8,0000.0,0012.61,0005.35,0004.15
2023-06-24 10:43:00,SystemResetWarning,0829.4,4.99,000.00,030.2,028.5,000.0,038.7,031.6,9.1,0000.0,0012.50,0005.41,0004.15
2023-06-24 10:44:00,SystemResetWarning,0829.5,5.00,000.00,030.2,028.5,000.0,038.8,031.6,9.0,0000.0,0012.23,0005.42,0004.13
2023-06-24 10:45:00,SystemResetWarning,0829.5,5.00,000.00,030.2,028.5,000.0,038.8,031.6,9.0,0000.0,0012.59,0005.43,0004.14
2023-06-24 10:46:00,SystemResetWarning,0829.5,5.00,000.00,030.2,028.5,000.0,038.8,031.6,8.8,0000.0,0012.61,0005.43,0004.15
2023-06-24 10:47:00,SystemResetWarning,0829.5,5.01,000.00,030.2,028.5,000.0,038.8,031.6,9.0,0000.0,0012.74,0005.39,0004.14
2023-06-24 10:48:00,SystemResetWarning,0829.4,5.00,000.00,030.2,028.5,000.0,038.8,031.6,9.2,0000.0,0012.24,0005.37,0004.13
2023-06-24 10:49:00,SystemResetWarning,0829.4,5.00,000.00,030.2,028.5,000.0,038.8,031.6,8.9,0000.0,0012.53,0005.38,0004.14
2023-06-24 10:50:00,SystemResetWarning,0829.5,5.00,000.00,030.2,028.5,000.0,038.8,031.7,9.0,0001.9,0012.86,0005.40,0004.13
2023-06-24 10:51:00,SystemResetWarning,0829.5,5.00,000.00,030.2,028.5,000.0,038.8,031.7,9.0,0003.5,0012.86,0005.40,0004.12
2023-06-24 10:52:00,SystemResetWarning,0829.5,5.00,000.00,030.2,028.5,000.0,038.8,031.7,9.1,0000.0,0012.33,0005.41,0004.13
2023-06-24 10:53:00,SystemResetWarning,0829.5,5.00,000.00,030.2,028.5,000.0,038.8,031.7,9.0,0000.0,0012.12,0005.41,0004.13
2023-06-24 10:54:00,SystemResetWarning,0829.4,5.00,000.00,030.2,028.5,000.0,038.8,031.7,8.9,0000.0,0012.14,0005.37,0004.14
2023-06-24 10:55:00,SystemResetWarning,0829.4,5.00,000.00,030.2,028.5,000.0,038.8,031.7,8.9,0000.0,0012.48,0005.37,0004.15
2023-06-24 10:56:00,SystemResetWarning,0829.4,4.99,000.00,030.2,028.6,000.0,038.8,031.7,8.9,0000.0,0011.95,0005.35,0004.15
2023-06-24 10:57:00,SystemResetWarning,0829.4,5.00,000.00,030.3,028.6,000.0,038.8,031.7,9.0,0000.0,0012.12,0005.32,0004.14
2023-06-24 10:58:00,SystemResetWarning,0829.4,5.00,000.00,030.3,028.6,000.0,038.8,031.7,9.1,0000.0,0012.85,0005.39,0004.14
2023-06-24 10:59:00,SystemResetWarning,0829.5,4.99,000.00,030.3,028.6,000.0,038.8,031.7,9.0,0000.0,0013.20,0005.41,0004.15
